Simultaneous Nadir Overpasses (SNOs) Predictions

Prediction of SNOs between NOAA-15 and METOP-C Satellite Orbit:

Table of predicted SNOs for the next 14.0 days since TLE Epoch: 7/8/2023
Index Date (NOAA-15) Time (NOAA-15) Lat,Lon (NOAA-15) SZA (NOAA-15 ) Date (METOP-C) Time (METOP-C) Lat,Lon (METOP-C) SZA (METOP-C ) Distance(km) Time Diff (sec)
1 07/17/2023 14:00:16 -81.09,-171.85 118.25 07/17/2023 13:59:08 -81.09,-171.71 118.27 2.33 68
2 07/17/2023 14:50:49 81.09, -4.44 61.76 07/17/2023 14:49:48 81.08, -4.57 61.72 2.44 61
3 07/17/2023 15:41:17 -81.09, 162.85 118.24 07/17/2023 15:40:30 -81.08, 162.78 118.28 1.76 47
4 07/17/2023 16:31:50 81.09, -29.74 61.77 07/17/2023 16:31:09 81.09, -29.71 61.76 0.48 41
5 07/17/2023 17:22:18 -81.09, 137.55 118.23 07/17/2023 17:21:51 -81.09, 137.64 118.24 1.58 27
6 07/17/2023 18:12:51 81.09, -55.03 61.78 07/17/2023 18:12:30 81.10, -54.85 61.79 3.24 21
7 07/17/2023 19:03:19 -81.10, 112.25 118.22 07/17/2023 19:03:13 -81.08, 112.13 118.25 2.60 6
8 07/17/2023 19:53:52 81.09, -80.33 61.79 07/17/2023 19:53:52 81.09, -80.36 61.78 0.65 0
9 07/17/2023 20:44:20 -81.10, 86.95 118.22 07/17/2023 20:44:34 -81.09, 86.99 118.21 1.07 14
10 07/17/2023 21:34:53 81.10,-105.62 61.80 07/17/2023 21:35:13 81.10,-105.49 61.82 2.29 20
11 07/17/2023 22:25:20 -81.08, 62.03 118.18 07/17/2023 22:25:55 -81.10, 61.86 118.17 3.34 35
12 07/17/2023 23:15:54 81.10,-130.92 61.81 07/17/2023 23:16:35 81.09,-131.00 61.81 1.57 41
13 07/18/2023 00:06:22 -81.10, 36.35 118.20 07/18/2023 00:07:17 -81.09, 36.35 118.18 1.15 55
14 07/18/2023 00:56:55 81.10,-156.22 61.82 07/18/2023 00:57:56 81.10,-156.14 61.85 1.35 61



Historial Predications of SNOs between NOAA-15 and METOP-C
